Regional Weather Roundup
Issued by NWS Lake Charles, LA

Home | Current Version | Previous Version | Text Only | Print | Product List | Glossary On
Versions: 1 2 3 4 5 6 7 8 9 10 11 12 13 14 15 16 17 18 19 20 21 22 23 24 25 26 27
000
ASUS44 KLCH 241310
RWRLCH
REGIONAL WEATHER ROUNDUP
NATIONAL WEATHER SERVICE LAKE CHARLES LA
700 AM CST TUE JAN 24 2017

Note: "fair" indicates few or no clouds below 12,000 feet with no
significant weather and/or obstructions to visibility.


ACROSS SOUTHEAST TEXAS

CITY           SKY/WX    TMP DP  RH WIND       PRES   REMARKS
BEAUMONT       CLEAR     53  51  93 SE6       29.84R
BEAUMONT CITY  FAIR      55  54  94 SE5       29.84S
ORANGE         SUNNY     53  52  97 SE3       29.87R
JASPER         CLEAR     42  42 100 CALM      29.86S
$$

ACROSS CENTRAL LOUISIANA

CITY           SKY/WX    TMP DP  RH WIND       PRES   REMARKS
LEESVILLE      CLEAR     46  45  95 E5        29.86R
FULLERTON      FAIR      41  39  93 CALM      29.85R
ALEXANDRIA INT CLEAR     43  41  93 E6        29.87R
ESLER FIELD    CLEAR     37  37 100 CALM      29.89R
DERIDDER       FAIR      43  42  95 CALM      29.88S
OAKDALE        SUNNY     39  39  98 CALM      29.88S
OPELOUSAS      FAIR      40  39  96 E5        29.90S
$$

ACROSS SOUTHWEST AND SOUTH CENTRAL LOUISIANA

CITY           SKY/WX    TMP DP  RH WIND       PRES   REMARKS
SULPHUR        SUNNY     53  53 100 E5        29.87R
LAKE CHARLES   MOCLDY    48  48 100 CALM      29.86S
CHENNAULT INT  FOG       45  45 100 CALM      29.87S VSB 1/2
CAMERON PHI    SUNNY     61  59  94 S7        29.85S
DEQUINCY       FOG       46  46  99 CALM      29.86S VSB 1/2
JENNINGS       FAIR      49  49  99 E6        29.88S
LAFAYETTE      CLEAR     50  48  93 CALM      29.91R
NEW IBERIA     CLEAR     45  41  86 E3        29.92R
ABBEVILLE      FAIR      45  45 100 MISG      29.91R
PATTERSON      FOG       45  44  97 CALM      29.93R VSB 1/4
SALT POINT     NOT AVBL
$$

SELECTED SITES ACROSS THE REGION

CITY           SKY/WX    TMP DP  RH WIND       PRES   REMARKS
HOUSTON BUSH   PTCLDY    57  53  86 S7        29.81R
HOUSTON HOBBY  PTCLDY    55  54  96 S6        29.81R
GALVESTON      CLEAR     65  62  90 S9        29.83S
COLLEGE STAT   CLEAR     50  49  96 SE6       29.77S
CONROE         CLEAR     41  40  96 CALM      29.81R
HUNTSVILLE     CLEAR     56  52  86 S10       29.78S
LUFKIN         CLEAR     43  40  89 SE5       29.81R
SHREVEPORT     PTCLDY    46  40  79 SE7       29.82R
MONROE         PTCLDY    43  41  93 CALM      29.90R
NATCHEZ MS     CLEAR     45  39  81 SE6       29.91R
BATON ROUGE    CLEAR     44  42  93 NE6       29.93R
N.O. INTL ARPT CLEAR     49  46  90 E3        29.94R
SLIDELL        CLEAR     42  40  92 NE3       29.95R FOG
$$

MARINE REPORTS

STATION/POSITION TIME  SKY/WX   TEMP    WIND        PRES    VSBY
                                AIR SEA DIR/SP/G
                 (UTC)          (F)     (DEG/KT/KT) (MB)    (MI)
BUOY 30 S HIGH I 1250            66 65  180/ 10/ 12 1010.3R
WVE H/P(F/S)=  1/ 4

SEA RIM ST PARK  1300            62     160/  7/  9 1011.0R
PORT ARTHUR      1248                   150/  4/  6 1010.5F
SABINE PASS N    1248                   160/  9/ 12 1011.7F
TEXAS POINT      NOT AVBL
CALCASIEU PASS   1248                   170/  8/  9   N/A
LK CHARLES BEACH 1248            51 63              1011.6R
MARSH ISLAND     1200            60                   N/A
FRESH WATER LOCK 1248            53 60   80/  5/  5 1013.0R
AMERADA PASS     1248            54 54   60/  3/  5 1013.0R
$$




USA.gov is the U.S. government's official web portal to all federal, state and local government web resources and services.